Temp_Advection
nan nan nan nan nan nan nan nan nan nan nan nan nan nan nan nan nan nan nan nan nan nan nan nan nan nan nan nan nan nan nan nan nan nan nan nan nan nan nan nan nan nan nan nan
nan -0 -1 -1 -0 -1 -1 -1 -1 -0 -0 0 0 -1 -1 -1 -1 -1 -1 -1 -1 -1 -1 -2 -2 -1 -0 -0 -0 -0 -0 -0 -0 0 0 0 0 0 -0 -0 -0 -0 -0 nan
nan -0 -0 -1 -0 -0 -0 -0 -0 -0 -0 -0 -0 -0 -1 -1 -1 -1 -1 -1 -1 -1 -1 -2 -3 -2 -0 -0 -0 -0 -0 -0 -0 0 0 -0 0 -0 -0 -0 -0 0 0 nan
nan 0 -1 -0 0 -0 -0 0 0 -0 -0 -1 -0 0 0 0 -1 -1 -1 -1 -1 -1 -1 -1 -3 -3 -1 0 -0 -0 -0 -0 -0 -0 -0 -0 -0 -0 0 -0 0 0 0 nan
nan -0 -0 -0 -0 -0 -0 0 -0 -1 -1 -1 -1 -1 -0 -0 -0 -0 -0 -1 -1 -1 -1 -1 -2 -4 -2 0 0 -0 -0 -0 -0 -0 -0 -0 0 0 0 0 -0 -0 -0 nan
nan -0 -0 -0 -0 0 -0 -0 -1 -1 -1 -1 -1 -1 -0 -0 -0 -0 -0 -0 -1 -1 -1 -1 -1 -3 -3 -1 0 0 -0 -0 -0 -0 -0 0 -0 -0 0 -0 -0 -0 0 nan
nan -0 -0 -0 -0 -0 -0 -0 -0 -1 -1 -1 -0 -1 -1 -1 -0 -1 -1 -1 -1 -1 -1 -1 -2 -3 -3 -1 0 0 -0 -0 -0 -0 -0 -0 -0 -0 0 0 0 0 0 nan
nan -0 -0 -0 -0 -0 -0 -0 -0 -1 -1 -1 -1 -1 -1 -1 -1 -1 -1 -1 -1 -1 -1 -0 -1 -2 -2 -2 -0 0 0 -0 -0 -0 -0 -0 0 0 0 0 0 0 0 nan
nan -0 -0 -0 -0 -0 -0 -0 -0 -0 -1 -1 -1 -1 -1 -1 -1 -1 -1 -1 -1 -1 -2 -1 -0 -0 -2 -2 -0 0 0 -0 -0 -1 -0 0 0 0 0 0 0 0 0 nan
nan -0 0 0 -0 -0 -0 -0 -0 -0 -0 -0 -1 -1 -1 -1 -0 -0 -0 -0 -1 -1 -2 -2 -1 -0 -0 -1 -1 -1 -0 0 -0 -0 -0 -0 0 0 0 0 0 0 0 nan
nan -0 -0 0 0 0 -0 -0 0 0 0 -0 -0 -0 -0 -0 -0 -0 -0 0 0 -0 -1 -2 -2 -1 -1 -1 -1 -0 -0 0 -0 -0 -0 0 0 0 0 0 1 1 1 nan
nan 0 -0 -0 -0 0 -0 -0 -0 -0 -0 -0 0 -0 -0 -0 -0 -0 0 -0 0 0 -0 -1 -1 -1 -1 -1 -1 -1 0 0 -0 -0 0 0 0 1 0 1 1 1 1 nan
nan 0 -0 -0 -0 0 0 -0 -0 -0 -0 -0 -0 0 -0 -0 -0 -0 -0 -0 -0 -0 -0 -0 -1 -1 -1 -1 -1 -1 -0 0 0 0 0 1 0 1 1 0 1 1 1 nan
nan 0 -0 -0 0 0 0 0 0 0 -0 -0 -0 -0 -0 -0 -0 -0 -0 -0 -0 -0 -0 -0 -0 -1 -1 -1 -1 -1 0 1 0 1 1 1 1 1 1 0 0 0 1 nan
nan 0 0 0 0 0 0 -0 -0 -0 -0 -0 -0 -1 -0 -0 -0 -0 -0 -0 -0 -0 -0 -1 -0 -0 -0 -0 -0 -0 0 1 0 1 1 1 2 1 1 1 1 1 1 nan
nan 0 0 -0 -0 -0 -0 -0 -0 -0 -0 -0 -1 -0 -1 -1 -0 -0 -0 -0 -0 -0 -0 -0 -1 -0 -0 -0 -0 0 1 1 1 1 2 2 2 2 1 1 1 1 1 nan
nan 0 0 0 -0 -0 -0 0 0 -0 0 0 0 0 -0 -1 -1 -0 -1 -0 -0 -0 -0 -0 -0 -0 0 -0 0 0 0 1 1 1 2 2 2 2 2 1 1 1 1 nan
nan 0 0 0 0 0 0 0 1 1 0 0 0 0 0 -0 -1 -0 -1 -0 -0 -0 -0 -0 -0 -0 -0 -0 0 0 0 0 0 1 1 2 2 2 2 1 2 2 1 nan
nan 0 0 0 0 0 0 0 0 1 1 0 0 0 0 0 -0 -0 -0 -1 -0 -0 -1 -0 -0 -0 -0 -0 0 0 0 0 -0 0 0 1 1 1 1 1 1 2 2 nan
nan 0 0 0 0 0 0 0 0 0 0 0 0 0 0 0 -0 0 0 -0 -0 -0 -0 -0 -0 -0 -0 -0 -0 0 0 0 -0 0 0 0 1 1 1 1 0 1 1 nan
nan 0 0 0 0 0 0 0 0 0 0 0 0 -0 -0 0 0 -0 0 0 -0 -0 -0 -0 -0 -0 -0 -0 -0 -0 -0 0 0 0 0 0 0 1 1 1 1 1 1 nan
nan 0 0 0 0 0 0 0 0 0 0 0 0 0 -0 -0 0 0 -0 -0 -0 -0 -0 -0 -0 -0 -0 -0 -0 -0 -0 -0 -0 0 0 0 0 0 0 0 0 0 0 nan
nan 0 -0 -0 -0 -0 0 0 0 0 0 0 0 -0 0 -0 0 0 0 -0 -0 -0 -0 -0 -0 -0 -0 -0 -0 -0 -0 -0 -0 -0 0 0 0 0 0 0 0 0 0 nan
nan -0 0 -0 -0 -0 -0 -0 -0 0 0 0 0 0 -0 -0 -0 0 0 0 0 -0 -0 -0 -0 -0 -1 -0 -0 -0 -0 -0 -0 -0 -0 -0 0 0 0 -0 -0 -0 0 nan
nan -0 -0 -0 -0 -0 -0 -0 -0 -0 -0 -0 -0 0 0 0 -0 -0 0 -0 0 0 -0 -0 -0 -0 -0 -0 -0 -0 -0 -0 -0 -0 -0 -0 -0 -0 -0 -0 -0 -0 -0 nan
nan -0 -0 -0 -0 -0 -0 -0 -0 -0 -0 -0 -0 -0 0 0 0 -0 -0 0 -0 -0 0 0 0 -0 -0 -0 -0 -0 -0 -0 -0 -0 -0 -0 -0 -0 -0 -0 -0 -0 -0 nan
nan nan nan nan nan nan nan nan nan nan nan nan nan nan nan nan nan nan nan nan nan nan nan nan nan nan nan nan nan nan nan nan nan nan nan nan nan nan nan nan nan nan nan nan
Wind_Speed
17 20 25 23 23 21 22 17 9 9 12 15 17 18 22 24 25 25 28 29 28 29 26 24 23 21 21 17 10 6 4 6 10 8 11 11 16 13 12 17 17 18 23 24
13 19 26 24 24 20 15 17 14 10 6 16 22 22 24 24 22 25 31 32 32 30 28 26 24 22 21 19 12 7 7 4 5 9 10 13 21 21 17 16 17 14 13 16
7 4 8 10 19 15 12 15 10 11 12 20 20 25 27 24 20 28 31 33 34 33 30 28 25 22 19 18 14 7 6 8 4 8 11 11 17 27 22 19 20 16 16 15
4 2 6 2 15 10 8 9 15 16 17 19 23 30 25 6 27 31 33 35 36 34 32 28 26 20 17 15 12 8 8 7 5 2 8 10 13 17 25 21 21 21 28 28
3 8 7 9 14 10 5 2 15 17 20 25 27 26 8 20 31 29 30 33 34 35 33 29 25 22 15 13 11 9 7 7 5 5 5 9 11 17 24 26 24 18 21 23
3 4 4 8 17 18 6 3 21 22 22 24 27 13 9 34 31 30 29 30 35 34 31 26 23 21 16 13 11 7 8 6 6 6 6 7 8 13 18 28 21 23 20 22
8 5 4 12 16 2 2 7 25 21 21 22 15 20 33 32 29 27 27 26 27 28 26 24 22 20 18 14 12 9 8 7 5 8 8 7 8 13 15 14 19 25 26 25
4 4 4 17 5 5 7 15 17 19 19 21 23 24 28 31 31 32 34 34 32 31 26 21 18 17 17 18 10 13 9 8 8 10 10 4 7 8 14 15 14 17 17 20
6 3 6 2 6 7 9 10 13 15 19 19 21 23 26 28 28 30 31 31 30 29 27 18 13 13 16 13 12 15 14 12 11 13 12 10 6 6 11 14 14 17 16 14
2 1 10 6 6 11 12 13 13 14 15 15 17 19 22 24 26 28 27 27 27 27 25 23 17 11 14 16 16 17 16 15 15 17 14 14 14 8 9 12 15 20 14 13
1 3 8 7 14 19 19 19 19 17 17 18 17 19 19 21 23 26 26 27 25 25 25 25 21 16 12 16 17 17 18 19 18 18 17 16 16 16 12 13 18 19 15 18
2 3 5 15 18 16 22 22 20 20 21 17 16 18 19 21 21 23 25 27 27 26 26 24 22 19 16 13 17 18 20 22 21 18 18 16 17 18 17 15 16 17 18 16
3 12 17 12 17 16 21 21 19 18 17 19 18 18 19 20 21 21 24 25 27 28 27 23 22 19 17 13 14 18 23 24 24 22 21 21 20 21 22 18 17 14 13 12
5 14 7 16 16 19 18 18 18 16 15 17 17 18 19 19 19 22 23 24 24 26 28 26 23 21 16 11 9 17 21 23 26 28 26 24 23 23 24 23 23 23 20 17
7 11 14 17 18 19 19 19 20 20 20 20 18 19 19 20 20 19 21 22 22 25 27 30 26 25 18 10 4 11 17 20 26 27 29 27 27 27 28 28 28 27 24 21
12 11 12 15 18 20 21 20 17 20 18 18 18 18 19 18 17 16 17 19 22 24 25 27 28 23 23 14 5 4 12 13 19 22 24 26 28 29 30 28 26 25 24 22
15 14 15 16 16 18 18 17 16 16 17 17 17 18 17 18 18 16 17 17 17 18 21 22 27 22 21 19 15 9 6 11 11 17 21 26 27 29 29 26 24 24 23 21
13 14 15 17 19 19 19 19 18 17 16 18 18 18 17 16 18 19 17 17 16 17 18 20 21 23 18 18 16 16 16 15 14 16 15 20 24 24 27 24 23 23 23 22
12 14 14 16 16 18 18 19 20 20 18 18 18 18 17 16 17 17 15 16 16 17 20 19 16 20 20 16 14 14 13 14 13 12 13 15 20 21 21 19 17 20 23 22
13 13 14 15 15 17 19 18 19 20 18 18 18 18 18 16 17 17 15 12 13 14 17 15 15 19 21 18 13 10 12 11 9 9 10 10 14 17 17 16 15 14 17 18
14 14 14 15 17 17 18 19 20 20 18 17 17 18 19 18 17 16 16 13 12 12 15 10 15 15 20 19 11 9 8 10 7 5 6 8 10 10 11 11 11 11 12 13
16 17 18 20 21 22 20 20 20 20 18 17 16 17 18 18 17 15 13 14 14 13 15 11 12 9 18 17 12 9 6 5 5 4 4 5 5 6 6 7 8 8 9 10
21 22 23 24 24 24 22 20 19 19 19 18 17 16 16 17 16 17 15 11 12 12 17 12 6 14 18 14 9 6 4 3 2 1 2 3 3 3 4 4 5 6 7 7
23 23 23 22 20 19 18 17 18 19 18 18 16 15 15 15 15 14 14 14 12 9 13 13 10 9 16 12 9 7 5 4 2 2 2 2 2 3 4 5 5 6 6 6
21 20 19 16 16 16 17 19 20 19 17 17 15 13 12 12 15 14 13 13 14 13 12 10 11 11 12 10 9 7 6 6 5 4 4 4 5 6 7 7 7 7 6 6
20 18 16 14 13 18 20 20 18 16 17 16 16 16 12 11 11 14 14 14 14 15 16 14 12 10 10 10 9 9 8 8 8 7 6 6 7 7 8 8 8 8 8 8
18 15 15 16 20 19 17 15 16 18 16 16 17 14 15 15 16 15 13 16 16 16 15 14 14 13 11 9 10 10 10 11 10 10 9 9 9 8 9 9 9 9 10 10
Wind_Direction
92 84 68 48 31 28 42 37 42 90 76 11 353 342 337 337 342 345 343 339 338 335 334 333 341 355 6 9 19 21 35 216 232 248 244 243 229 213 195 202 207 213 220 222
91 100 72 50 30 26 36 28 43 50 71 359 340 337 337 341 342 344 336 332 331 328 326 326 331 340 350 359 10 13 13 3 237 236 242 240 216 200 177 168 168 184 188 209
168 227 343 34 13 21 69 48 32 20 347 346 346 336 331 330 344 339 333 328 326 323 321 320 320 327 336 347 357 3 359 24 277 241 226 229 223 210 207 207 198 192 206 208
98 218 56 86 28 354 353 55 25 7 355 355 340 322 315 349 346 337 332 329 324 322 318 315 310 314 317 328 343 350 342 3 21 287 231 225 223 223 210 205 206 219 214 204
92 74 131 61 350 350 332 45 19 354 345 350 341 328 119 350 340 334 329 325 321 319 314 309 301 297 303 312 324 345 333 327 328 314 246 228 226 215 211 213 214 209 205 190
76 78 66 355 338 334 179 136 0 350 347 348 343 338 324 334 336 334 334 327 326 324 318 310 299 294 283 287 297 328 336 298 281 295 287 226 241 230 221 214 210 210 210 203
59 91 103 349 343 299 344 343 335 338 340 338 337 322 318 328 334 335 332 332 332 330 326 313 299 286 271 265 277 284 307 296 277 270 280 246 248 230 223 225 215 220 223 208
36 66 69 8 15 45 322 316 325 331 334 331 332 334 332 335 339 343 343 343 343 340 340 329 318 294 271 258 258 259 270 274 250 240 237 248 213 219 212 210 218 198 203 207
19 55 350 108 51 1 338 323 330 326 329 332 334 337 337 339 344 347 346 345 343 341 338 334 338 337 297 267 247 246 256 253 252 252 232 242 230 203 202 205 206 196 201 205
251 82 333 215 8 356 348 336 334 337 335 333 333 338 340 343 347 349 351 350 347 343 339 336 337 316 303 286 254 227 240 252 242 244 233 226 240 223 201 195 191 183 188 190
296 333 356 172 339 343 341 347 348 348 347 345 345 343 345 349 354 353 354 1 359 354 346 343 339 328 306 285 250 229 225 244 240 228 225 221 216 215 209 200 192 190 187 177
360 320 290 292 332 337 337 343 345 345 344 350 353 351 351 358 4 356 4 8 6 8 359 353 346 337 318 290 261 237 226 236 230 214 206 214 207 175 172 178 161 158 156 163
290 318 316 322 338 340 335 339 343 338 343 343 353 355 357 358 4 358 10 12 15 13 7 6 3 346 329 303 273 243 231 232 222 211 201 194 189 179 171 151 156 162 160 162
282 332 329 338 330 340 338 338 339 343 346 352 347 354 355 356 1 6 7 8 12 17 14 10 16 9 352 323 280 247 227 226 217 204 197 193 188 185 178 174 162 146 146 149
310 321 321 326 335 342 344 344 344 347 349 350 353 349 350 352 355 356 2 5 8 10 16 14 16 22 11 360 314 239 220 217 214 205 196 190 180 175 168 164 163 159 153 154
314 312 322 332 339 342 342 343 338 339 339 341 341 341 343 342 347 350 355 4 9 11 10 12 12 17 25 21 30 189 194 195 201 193 181 176 171 165 158 157 155 151 152 154
324 328 330 328 330 331 331 330 326 325 327 331 332 336 338 340 343 346 353 359 3 8 12 16 7 9 29 33 49 74 121 163 160 171 172 168 164 163 156 157 161 158 154 156
315 319 320 320 323 324 327 329 328 324 323 326 328 334 334 339 341 341 340 347 352 2 10 14 5 10 17 26 44 60 80 98 109 116 129 141 145 146 143 149 154 159 157 158
315 317 320 321 324 323 326 328 328 328 325 324 326 328 331 331 334 338 336 344 348 358 0 2 3 11 15 20 38 60 65 80 87 92 104 110 118 119 122 136 141 142 147 152
317 318 321 324 327 327 328 331 327 327 326 320 320 323 326 327 330 334 336 338 348 352 347 354 357 359 9 15 19 51 78 80 95 101 104 106 108 119 130 138 146 150 150 151
313 313 317 321 324 326 327 327 326 327 326 319 313 317 319 322 324 326 329 327 339 353 342 356 16 357 352 0 12 25 45 81 87 90 98 104 110 123 134 144 156 159 153 149
312 309 311 312 313 315 320 321 322 321 322 318 312 309 310 315 316 317 321 318 325 339 338 350 14 329 338 349 358 7 25 42 75 100 107 108 121 134 144 163 173 175 171 166
308 306 306 308 309 308 309 314 315 316 318 317 311 307 303 306 307 311 313 316 319 332 316 326 325 337 323 340 354 0 359 355 24 15 93 138 155 166 173 188 199 196 193 184
313 311 311 313 313 313 313 316 314 317 317 314 310 307 303 303 301 304 302 308 304 327 302 314 323 317 307 325 332 342 351 342 315 286 268 254 231 226 235 230 226 220 220 210
327 324 322 325 326 326 323 322 320 322 319 318 315 311 305 299 296 304 297 301 306 306 307 308 310 313 310 310 310 310 312 322 319 302 281 263 252 253 253 250 244 243 240 237
330 329 327 325 321 322 321 321 324 324 324 320 315 322 317 308 303 302 298 295 298 302 303 301 303 308 311 311 308 303 298 294 295 295 286 274 266 263 261 260 261 259 259 260
331 330 333 321 322 325 325 328 313 312 317 317 319 325 316 309 306 302 296 293 295 295 292 289 291 296 301 304 307 304 298 290 285 282 283 283 282 278 274 271 269 268 266 264
Height
1481 1481 1479 1483 1479 1475 1472 1477 1469 1488 1499 1506 1504 1500 1496 1492 1486 1480 1476 1471 1466 1462 1456 1453 1448 1445 1441 1438 1435 1433 1432 1433 1433 1433 1434 1435 1437 1438 1437 1438 1440 1443 1449 1453
1484 1480 1481 1488 1494 1494 1491 1496 1500 1500 1499 1507 1505 1501 1496 1493 1488 1482 1477 1472 1465 1461 1456 1451 1446 1443 1440 1438 1434 1432 1430 1430 1431 1431 1431 1432 1434 1437 1438 1439 1439 1442 1446 1450
1482 1480 1475 1493 1517 1511 1513 1515 1515 1515 1513 1506 1498 1499 1499 1494 1489 1484 1479 1472 1465 1459 1454 1449 1445 1442 1440 1437 1434 1431 1429 1428 1429 1428 1429 1429 1431 1433 1436 1437 1439 1440 1443 1447
1477 1482 1502 1518 1522 1519 1516 1518 1518 1515 1512 1506 1505 1501 1496 1495 1491 1483 1476 1468 1462 1456 1450 1446 1443 1440 1439 1437 1434 1431 1429 1427 1427 1427 1427 1428 1430 1431 1433 1436 1437 1438 1440 1443
1487 1497 1516 1517 1520 1523 1522 1517 1519 1520 1518 1507 1505 1498 1492 1494 1491 1484 1477 1469 1461 1454 1447 1442 1440 1439 1435 1434 1432 1431 1429 1427 1427 1427 1426 1426 1427 1429 1431 1433 1435 1437 1437 1441
1493 1499 1508 1529 1523 1519 1518 1511 1522 1520 1514 1509 1505 1495 1495 1493 1488 1482 1474 1469 1458 1451 1442 1438 1435 1432 1432 1432 1431 1431 1429 1428 1427 1427 1426 1426 1426 1426 1428 1430 1432 1436 1438 1438
1497 1507 1525 1532 1525 1519 1513 1522 1521 1519 1516 1515 1511 1508 1493 1488 1485 1482 1477 1469 1461 1451 1441 1435 1433 1430 1425 1426 1428 1430 1429 1428 1427 1427 1425 1425 1425 1425 1425 1427 1429 1431 1433 1435
1509 1513 1526 1533 1527 1528 1534 1529 1525 1520 1517 1512 1506 1498 1491 1483 1476 1469 1461 1451 1444 1440 1435 1434 1428 1422 1420 1421 1425 1428 1428 1427 1427 1426 1425 1424 1424 1424 1424 1425 1428 1428 1432 1434
1527 1530 1536 1536 1536 1536 1534 1530 1527 1522 1516 1511 1505 1499 1492 1484 1476 1469 1462 1455 1448 1442 1435 1432 1426 1421 1419 1418 1420 1424 1426 1426 1425 1426 1425 1424 1423 1423 1424 1424 1426 1427 1430 1432
1534 1534 1534 1533 1534 1533 1531 1528 1524 1521 1516 1511 1507 1501 1493 1486 1479 1473 1468 1461 1453 1446 1438 1433 1424 1419 1418 1418 1419 1419 1422 1423 1423 1424 1423 1423 1423 1423 1423 1423 1425 1427 1430 1431
1534 1534 1530 1531 1531 1528 1525 1522 1518 1514 1511 1506 1502 1498 1493 1487 1481 1475 1468 1461 1455 1448 1441 1430 1422 1417 1416 1417 1417 1415 1418 1421 1422 1421 1421 1420 1422 1421 1422 1423 1425 1427 1429 1432
1533 1537 1536 1531 1528 1525 1521 1517 1514 1510 1506 1503 1500 1495 1490 1486 1481 1475 1468 1461 1453 1446 1439 1431 1421 1417 1416 1415 1414 1412 1413 1417 1419 1419 1418 1419 1420 1418 1419 1424 1425 1426 1428 1432
1538 1535 1532 1529 1526 1523 1518 1514 1511 1508 1504 1499 1496 1492 1487 1482 1478 1474 1468 1461 1453 1446 1441 1435 1423 1417 1416 1414 1411 1409 1410 1413 1416 1417 1417 1416 1418 1416 1415 1422 1425 1427 1430 1433
1535 1533 1529 1527 1524 1520 1516 1512 1509 1506 1502 1498 1494 1489 1485 1481 1477 1471 1466 1462 1456 1450 1444 1435 1426 1421 1417 1414 1410 1408 1407 1410 1412 1414 1414 1414 1415 1415 1414 1418 1423 1426 1429 1432
1534 1532 1529 1525 1522 1518 1514 1509 1505 1501 1498 1494 1491 1487 1484 1480 1476 1472 1467 1462 1456 1450 1444 1437 1431 1425 1421 1414 1407 1406 1404 1406 1409 1409 1411 1412 1412 1412 1412 1416 1422 1425 1427 1431
1531 1529 1527 1523 1519 1515 1511 1507 1504 1499 1496 1492 1489 1486 1482 1479 1476 1473 1468 1464 1458 1453 1447 1442 1436 1429 1422 1416 1411 1409 1405 1405 1408 1407 1408 1409 1411 1410 1410 1417 1423 1425 1427 1431
1527 1525 1523 1520 1517 1513 1510 1506 1503 1499 1495 1491 1488 1484 1480 1476 1472 1469 1466 1463 1460 1456 1451 1446 1440 1434 1428 1424 1418 1412 1408 1406 1408 1408 1409 1408 1409 1410 1409 1416 1422 1425 1427 1432
1526 1523 1521 1518 1515 1511 1507 1504 1500 1496 1493 1490 1486 1482 1478 1475 1471 1466 1464 1461 1458 1455 1451 1446 1442 1436 1431 1426 1421 1416 1412 1410 1413 1412 1415 1412 1409 1412 1405 1416 1424 1426 1428 1433
1523 1520 1518 1515 1512 1509 1506 1501 1497 1494 1490 1487 1483 1480 1477 1473 1470 1466 1463 1459 1456 1453 1450 1447 1445 1441 1436 1432 1424 1420 1419 1416 1417 1419 1419 1417 1412 1410 1409 1421 1428 1430 1430 1435
1519 1517 1514 1511 1509 1506 1502 1499 1495 1491 1487 1484 1481 1478 1474 1471 1468 1464 1462 1460 1457 1453 1451 1447 1443 1440 1436 1432 1431 1427 1424 1423 1426 1427 1425 1422 1416 1415 1422 1428 1434 1437 1435 1434
1516 1513 1510 1508 1505 1502 1498 1494 1491 1487 1484 1481 1478 1475 1472 1469 1466 1463 1460 1458 1456 1453 1451 1448 1445 1442 1438 1436 1434 1431 1427 1425 1427 1427 1427 1424 1423 1426 1429 1432 1437 1439 1435 1433
1511 1509 1506 1503 1499 1496 1494 1490 1486 1483 1480 1477 1475 1472 1469 1466 1463 1461 1459 1456 1453 1451 1450 1448 1446 1444 1441 1438 1434 1432 1431 1431 1430 1431 1430 1429 1429 1431 1432 1436 1438 1439 1438 1436
1505 1503 1499 1496 1493 1490 1487 1485 1481 1478 1475 1472 1470 1468 1465 1463 1460 1458 1456 1455 1452 1449 1448 1446 1445 1444 1440 1439 1437 1436 1434 1433 1432 1432 1431 1431 1432 1434 1435 1436 1438 1438 1438 1435
1499 1495 1492 1489 1486 1484 1481 1480 1477 1474 1470 1467 1465 1463 1460 1458 1457 1455 1453 1451 1450 1449 1447 1444 1443 1442 1437 1436 1435 1434 1433 1433 1432 1432 1431 1431 1432 1432 1435 1437 1437 1436 1436 1434
1493 1489 1486 1484 1481 1479 1476 1474 1471 1469 1466 1463 1460 1458 1456 1454 1452 1451 1449 1447 1446 1444 1443 1442 1440 1439 1437 1436 1435 1434 1432 1432 1431 1431 1430 1430 1431 1432 1432 1433 1434 1432 1430 1429
1489 1485 1482 1480 1478 1475 1471 1468 1465 1463 1461 1458 1456 1454 1452 1450 1449 1447 1445 1444 1442 1440 1438 1437 1437 1436 1435 1433 1432 1431 1430 1429 1429 1428 1428 1429 1429 1428 1429 1428 1426 1425 1425 1425
1485 1483 1479 1477 1474 1470 1467 1465 1462 1459 1457 1454 1452 1450 1448 1446 1444 1442 1441 1439 1438 1436 1435 1433 1432 1431 1431 1431 1429 1429 1428 1426 1425 1425 1424 1423 1422 1422 1422 1422 1422 1421 1421 1422